| time (UTC) | temp F | wind direction | speed knots | gust knots | rain 1hr in | rain 24hr in | rain mn in | humidity % | barometer mb |
| 20260508151504 | 59 | 51 | 1.7 | 4.3 | 0.00 | 0.00 | 0.00 | 85 | 1003.4 |
| 20260508150010 | 59 | 49 | 2.6 | 10.4 | 0.00 | 0.00 | 0.00 | 85 | 1003.5 |
| 20260508144508 | 58 | 16 | 0.9 | 7.0 | 0.00 | 0.00 | 0.00 | 86 | 1003.5 |
| 20260508143010 | 58 | 28 | 1.7 | 5.2 | 0.00 | 0.00 | 0.00 | 86 | 1003.5 |
| 20260508141508 | 58 | 55 | 3.5 | 8.7 | 0.00 | 0.00 | 0.00 | 86 | 1003.5 |
| 20260508140009 | 58 | 64 | 5.2 | 7.8 | 0.00 | 0.00 | 0.00 | 85 | 1003.5 |
| 20260508134559 | 58 | 59 | 2.6 | 5.2 | 0.00 | 0.00 | 0.00 | 85 | 1003.5 |
| 20260508133108 | 57 | 178 | 0.0 | 1.7 | 0.00 | 0.00 | 0.00 | 85 | 1003.5 |
| 20260508133003 | 57 | 119 | 0.0 | 1.7 | 0.00 | 0.00 | 0.00 | 85 | 1003.5 |
| 20260508131602 | 57 | 41 | 3.5 | 6.1 | 0.00 | 0.00 | 0.00 | 84 | 1003.4 |
| 20260508130100 | 58 | 93 | 5.2 | 8.7 | 0.00 | 0.00 | 0.00 | 83 | 1003.2 |
| 20260508124525 | 57 | 117 | 2.6 | 6.1 | 0.00 | 0.00 | 0.00 | 83 | 1002.9 |
| 20260508123025 | 57 | 88 | 1.7 | 5.2 | 0.00 | 0.00 | 0.00 | 82 | 1002.7 |
| 20260508121525 | 57 | 84 | 4.3 | 6.1 | 0.00 | 0.00 | 0.00 | 81 | 1002.5 |
| 20260508114510 | 57 | 137 | 2.6 | 5.2 | 0.00 | 0.00 | 0.00 | 80 | 1002.5 |
| 20260508113009 | 58 | 137 | 2.6 | 6.1 | 0.00 | 0.00 | 0.00 | 79 | 1002.6 |
| 20260508111507 | 58 | 121 | 2.6 | 7.8 | 0.00 | 0.00 | 0.00 | 80 | 1002.3 |
| 20260508110006 | 58 | 139 | 5.2 | 11.3 | 0.00 | 0.00 | 0.00 | 81 | 1002.3 |
| 20260508104555 | 59 | 150 | 7.8 | 10.4 | 0.00 | 0.00 | 0.00 | 80 | 1002.3 |
| 20260508103153 | 58 | 138 | 9.6 | 13.0 | 0.00 | 0.00 | 0.00 | 80 | 1002.4 |
| 20260508101553 | 59 | 163 | 9.6 | 12.2 | 0.00 | 0.00 | 0.00 | 79 | 1002.8 |
| 20260508100049 | 58 | 156 | 6.1 | 9.6 | 0.00 | 0.00 | 0.00 | 77 | 1002.9 |
| 20260508094557 | 58 | 150 | 4.3 | 7.0 | 0.00 | 0.00 | 0.00 | 76 | 1003.2 |
| 20260508093054 | 58 | 142 | 9.6 | 12.2 | 0.00 | 0.00 | 0.00 | 75 | 1002.8 |
| 20260508091607 | 58 | 137 | 8.7 | 11.3 | 0.00 | 0.00 | 0.00 | 74 | 1002.5 |
| 20260508090055 | 59 | 131 | 7.0 | 8.7 | 0.00 | 0.00 | 0.00 | 71 | 1002.7 |
| 20260508084522 | 59 | 121 | 7.0 | 9.6 | 0.00 | 0.00 | 0.00 | 70 | 1003.0 |
| 20260508083020 | 59 | 128 | 3.5 | 9.6 | 0.00 | 0.00 | 0.00 | 69 | 1003.2 |
| 20260508081525 | 60 | 65 | 6.1 | 8.7 | 0.00 | 0.00 | 0.00 | 69 | 1002.9 |
| 20260508080029 | 60 | 171 | 4.3 | 6.1 | 0.00 | 0.00 | 0.00 | 68 | 1003.7 |
| 20260508074536 | 60 | 150 | 3.5 | 7.0 | 0.00 | 0.00 | 0.00 | 68 | 1003.9 |
| 20260508073033 | 60 | 132 | 5.2 | 8.7 | 0.00 | 0.00 | 0.00 | 69 | 1004.0 |
| 20260508071532 | 60 | 123 | 7.0 | 8.7 | 0.00 | 0.00 | 0.00 | 67 | 1004.0 |
| 20260508070031 | 61 | 110 | 3.5 | 7.8 | 0.00 | 0.00 | 0.00 | 67 | 1004.1 |
| 20260508064543 | 61 | 119 | 3.5 | 7.8 | 0.00 | 0.00 | 0.00 | 67 | 1003.8 |
| 20260508063032 | 61 | 124 | 4.3 | 7.8 | 0.00 | 0.00 | 0.00 | 67 | 1003.9 |
| 20260508061536 | 61 | 123 | 1.7 | 2.6 | 0.00 | 0.00 | 0.00 | 66 | 1003.9 |
| 20260508060032 | 61 | 148 | 4.3 | 7.8 | 0.00 | 0.00 | 0.00 | 66 | 1004.1 |
| 20260508054538 | 62 | 160 | 7.8 | 11.3 | 0.00 | 0.00 | 0.00 | 65 | 1004.0 |
| 20260508053025 | 62 | 163 | 10.4 | 13.0 | 0.00 | 0.00 | 0.00 | 65 | 1004.1 |
| 20260508051530 | 62 | 168 | 13.0 | 16.5 | 0.00 | 0.00 | 0.00 | 64 | 1004.1 |
| 20260508050023 | 63 | 173 | 13.9 | 18.2 | 0.00 | 0.00 | 0.00 | 64 | 1003.8 |
| 20260508044526 | 63 | 157 | 14.8 | 18.2 | 0.00 | 0.00 | 0.00 | 63 | 1003.8 |
| 20260508043025 | 63 | 144 | 14.8 | 19.1 | 0.00 | 0.00 | 0.00 | 62 | 1004.1 |
| 20260508041524 | 64 | 147 | 13.0 | 17.4 | 0.00 | 0.00 | 0.00 | 61 | 1004.2 |
| 20260508040039 | 64 | 153 | 16.5 | 21.7 | 0.00 | 0.00 | 0.00 | 59 | 1004.2 |
| 20260508034511 | 65 | 150 | 15.6 | 22.6 | 0.00 | 0.00 | 0.00 | 58 | 1003.8 |
| 20260508033009 | 66 | 142 | 15.6 | 20.0 | 0.00 | 0.00 | 0.00 | 58 | 1003.6 |
| 20260508031514 | 67 | 142 | 14.8 | 18.2 | 0.00 | 0.00 | 0.00 | 56 | 1003.6 |
| 20260508030008 | 68 | 148 | 15.6 | 21.7 | 0.00 | 0.00 | 0.00 | 54 | 1003.5 |
| 20260508024521 | 68 | 149 | 14.8 | 19.1 | 0.00 | 0.00 | 0.00 | 53 | 1003.4 |
| 20260508023013 | 69 | 153 | 13.9 | 18.2 | 0.00 | 0.00 | 0.00 | 52 | 1003.3 |
| 20260508021512 | 69 | 140 | 13.0 | 16.5 | 0.00 | 0.00 | 0.00 | 51 | 1003.0 |
| 20260508020011 | 70 | 139 | 13.9 | 19.1 | 0.00 | 0.00 | 0.00 | 50 | 1002.8 |
| 20260508014603 | 70 | 142 | 12.2 | 19.1 | 0.00 | 0.00 | 0.00 | 49 | 1002.7 |
| 20260508013001 | 71 | 135 | 14.8 | 18.2 | 0.00 | 0.00 | 0.00 | 47 | 1002.6 |
| 20260508011600 | 71 | 131 | 13.0 | 17.4 | 0.00 | 0.00 | 0.00 | 46 | 1002.5 |
| 20260508011502 | 71 | 137 | 12.2 | 17.4 | 0.00 | 0.00 | 0.00 | 45 | 1002.5 |
| 20260508010059 | 72 | 139 | 14.8 | 19.1 | 0.00 | 0.00 | 0.00 | 45 | 1002.5 |
| 20260508004523 | 73 | 128 | 8.7 | 13.9 | 0.00 | 0.00 | 0.00 | 45 | 1002.4 |
| 20260508003018 | 73 | 150 | 11.3 | 16.5 | 0.00 | 0.00 | 0.00 | 44 | 1002.7 |
| 20260508001517 | 73 | 121 | 9.6 | 14.8 | 0.00 | 0.00 | 0.00 | 44 | 1002.6 |
| 20260508000017 | 73 | 137 | 7.0 | 13.0 | 0.00 | 0.00 | 0.00 | 44 | 1002.4 |
| 20260507234528 | 73 | 113 | 5.2 | 14.8 | 0.00 | 0.00 | 0.00 | 44 | 1002.5 |
| 20260507233018 | 73 | 134 | 10.4 | 16.5 | 0.00 | 0.00 | 0.00 | 44 | 1002.4 |
| 20260507231511 | 73 | 137 | 7.8 | 14.8 | 0.00 | 0.00 | 0.00 | 43 | 1002.6 |
| 20260507230015 | 72 | 142 | 10.4 | 15.6 | 0.00 | 0.00 | 0.00 | 44 | 1002.7 |
| 20260507224507 | 72 | 109 | 8.7 | 20.0 | 0.00 | 0.00 | 0.00 | 43 | 1003.0 |
| 20260507223007 | 72 | 119 | 7.8 | 13.0 | 0.00 | 0.00 | 0.00 | 42 | 1003.1 |
| 20260507221559 | 72 | 171 | 7.0 | 13.9 | 0.00 | 0.00 | 0.00 | 43 | 1003.3 |
| 20260507220057 | 71 | 134 | 9.6 | 14.8 | 0.00 | 0.00 | 0.00 | 45 | 1003.4 |
| 20260507214505 | 71 | 141 | 8.7 | 13.0 | 0.00 | 0.00 | 0.00 | 45 | 1003.6 |
| 20260507213002 | 70 | 144 | 4.3 | 15.6 | 0.00 | 0.00 | 0.00 | 45 | 1004.0 |
| 20260507211603 | 69 | 132 | 5.2 | 12.2 | 0.00 | 0.00 | 0.00 | 46 | 1004.5 |
| 20260507210113 | 68 | 101 | 3.5 | 7.0 | 0.00 | 0.00 | 0.00 | 48 | 1004.6 |
| 20260507204546 | 67 | 135 | 1.7 | 10.4 | 0.00 | 0.00 | 0.00 | 49 | 1004.8 |
| 20260507203040 | 67 | 161 | 2.6 | 10.4 | 0.00 | 0.00 | 0.00 | 49 | 1004.9 |
| 20260507201539 | 67 | 130 | 5.2 | 14.8 | 0.00 | 0.00 | 0.00 | 50 | 1005.1 |
| 20260507200046 | 65 | 87 | 9.6 | 14.8 | 0.00 | 0.00 | 0.00 | 52 | 1005.4 |
| 20260507194511 | 65 | 78 | 5.2 | 10.4 | 0.00 | 0.00 | 0.00 | 53 | 1005.8 |
| 20260507193002 | 64 | 108 | 7.8 | 11.3 | 0.00 | 0.00 | 0.00 | 54 | 1006.1 |
| 20260507191603 | 63 | 85 | 2.6 | 13.9 | 0.00 | 0.00 | 0.00 | 55 | 1006.3 |
| 20260507191501 | 63 | 296 | 4.3 | 13.9 | 0.00 | 0.00 | 0.00 | 54 | 1006.2 |
| 20260507190110 | 62 | 221 | 3.5 | 10.4 | 0.00 | 0.00 | 0.00 | 57 | 1006.6 |
| 20260507184553 | 62 | 30 | 1.7 | 13.0 | 0.00 | 0.00 | 0.00 | 58 | 1006.9 |
| 20260507183111 | 62 | 33 | 4.3 | 8.7 | 0.00 | 0.00 | 0.00 | 59 | 1007.1 |
| 20260507181556 | 61 | 104 | 2.6 | 7.0 | 0.00 | 0.00 | 0.00 | 60 | 1007.3 |
| 20260507180052 | 60 | 90 | 5.2 | 11.3 | 0.00 | 0.00 | 0.00 | 61 | 1007.6 |
| 20260507174536 | 60 | 107 | 3.5 | 9.6 | 0.00 | 0.00 | 0.00 | 61 | 1008.0 |
| 20260507173045 | 59 | 90 | 3.5 | 9.6 | 0.00 | 0.00 | 0.00 | 61 | 1008.1 |
| 20260507171533 | 58 | 63 | 5.2 | 9.6 | 0.00 | 0.00 | 0.00 | 63 | 1008.3 |
| 20260507170033 | 58 | 67 | 4.3 | 11.3 | 0.00 | 0.00 | 0.00 | 64 | 1008.4 |
| 20260507164544 | 57 | 51 | 8.7 | 13.9 | 0.00 | 0.00 | 0.00 | 64 | 1008.6 |
| 20260507163032 | 56 | 56 | 7.0 | 11.3 | 0.00 | 0.00 | 0.00 | 65 | 1008.8 |
| 20260507161542 | 56 | 82 | 7.8 | 12.2 | 0.00 | 0.00 | 0.00 | 65 | 1008.9 |
| 20260507160031 | 56 | 65 | 5.2 | 12.2 | 0.00 | 0.00 | 0.00 | 66 | 1008.9 |
| 20260507154528 | 56 | 80 | 6.1 | 10.4 | 0.00 | 0.00 | 0.00 | 66 | 1009.1 |
| 20260507153034 | 55 | 57 | 8.7 | 12.2 | 0.00 | 0.00 | 0.00 | 66 | 1009.0 |